Lid_Strength_Index
2 2 3 3 4 3 4 4 4 4 4 4 4 4 4 4 4 4 4 4 3 3 3 3 3 2 4 7 6 1 -3 -2 0 3 4 5 6 6 7 6 6 7 6 6 5 6 6
3 3 3 3 3 3 4 4 4 4 4 4 4 4 4 5 5 4 5 5 5 4 3 3 2 2 4 8 2 1 3 2 2 3 3 4 7 5 5 6 7 6 6 6 6 6 5
2 2 3 3 3 4 3 3 2 3 3 3 3 3 4 5 5 4 5 5 5 4 3 2 1 3 5 6 1 2 3 3 2 2 4 4 5 6 6 7 5 5 8 7 6 6 7
2 2 3 3 3 3 2 2 2 2 2 3 3 3 3 4 5 5 4 5 5 4 2 1 1 4 6 2 2 2 2 2 2 3 4 4 4 6 6 5 5 8 8 12 7 6 6
2 2 2 1 2 2 2 2 2 2 2 3 3 4 4 4 4 4 4 5 5 3 2 1 4 6 6 1 3 3 2 3 2 3 4 2 5 7 6 8 9 9 12 12 9 6 7
1 1 1 1 1 2 2 2 2 2 2 3 3 4 4 4 4 4 5 5 3 3 3 3 3 6 5 4 3 3 2 2 3 3 5 6 7 8 7 10 13 11 11 11 10 8 7
0 0 0 1 1 1 2 2 2 2 2 3 3 4 4 4 4 4 6 6 7 7 7 7 6 5 3 2 1 3 3 3 4 5 8 7 9 10 9 8 8 8 10 10 8 7 9
0 0 1 1 1 2 2 2 2 2 3 3 3 4 4 4 4 5 6 7 8 7 9 6 5 4 3 3 4 3 3 5 5 7 7 8 10 8 7 7 7 8 9 10 8 8 10
1 1 1 1 1 2 2 2 2 2 3 3 4 4 4 4 5 4 5 5 6 5 9 6 5 5 5 5 5 5 4 5 6 7 8 9 8 5 7 8 8 9 9 9 10 9 8
1 2 1 2 2 2 2 2 3 3 3 3 4 4 4 5 5 5 5 4 5 4 10 7 7 6 5 5 6 3 3 4 6 8 8 8 7 7 7 8 8 11 7 8 9 11 15
2 2 2 2 2 2 3 3 3 3 3 4 4 4 4 5 6 6 4 4 5 4 16 6 7 5 5 6 5 4 2 4 7 7 7 9 8 8 9 8 7 8 7 8 9 12 12
2 2 2 2 2 3 3 3 3 3 4 4 4 4 5 5 5 4 2 4 5 11 15 9 8 8 8 6 6 5 5 4 4 6 7 7 6 7 8 7 7 5 8 9 10 12 16
3 3 3 3 3 3 3 3 3 3 4 4 4 5 6 5 7 5 3 5 11 14 6 10 10 9 9 8 7 6 7 7 9 10 10 8 7 7 6 8 7 8 11 15 16 17 18
3 3 3 3 3 3 3 3 3 4 4 5 5 6 4 3 3 3 4 8 14 9 8 7 8 8 10 8 7 6 8 9 7 7 10 11 11 8 6 7 9 9 11 14 18 18 16
4 4 3 3 3 3 3 3 4 4 5 6 6 4 4 2 2 2 6 12 11 8 6 7 7 9 10 9 8 7 8 8 7 7 10 11 10 7 6 6 7 9 12 9 13 14 17
4 4 4 4 3 4 3 3 4 4 5 6 7 5 3 2 1 3 7 10 8 5 6 6 9 8 10 9 9 9 8 6 7 6 7 8 11 7 6 6 6 8 8 12 13 18 19
5 4 4 3 3 3 4 4 4 4 5 6 5 5 2 1 1 5 10 8 6 4 4 6 8 8 8 8 9 9 8 6 5 6 7 8 10 10 8 9 10 10 10 12 12 14 18
6 6 5 4 3 3 3 4 4 4 6 5 5 7 1 1 7 7 8 7 7 5 4 6 6 7 8 8 8 8 8 7 4 5 7 7 9 12 10 7 6 8 10 12 15 15 14
5 5 5 5 5 4 3 3 4 4 5 7 7 5 2 2 9 8 6 6 5 5 5 6 6 6 6 8 9 7 7 5 4 5 8 8 11 14 13 10 8 9 9 9 11 11 14
5 5 5 5 5 5 4 3 3 4 4 6 7 8 5 4 5 7 7 7 7 4 5 5 6 6 7 8 7 9 7 5 4 5 4 7 11 13 14 12 10 11 9 8 10 13 13
6 6 5 5 5 5 5 4 4 4 4 5 5 7 5 9 7 7 6 7 7 7 5 5 7 6 7 10 9 10 8 7 6 6 6 8 13 10 9 8 9 9 9 9 10 10 12
6 6 6 5 5 5 5 5 4 4 4 5 7 6 5 7 6 7 8 7 7 7 6 7 7 6 6 9 9 10 9 9 10 8 8 8 12 11 11 9 9 10 9 8 9 10 9
6 6 6 6 6 5 5 5 4 4 4 3 2 2 5 7 7 7 7 7 6 6 5 5 6 7 7 7 6 6 6 7 7 8 9 10 11 12 14 11 10 13 10 9 8 8 9
6 6 6 6 6 6 5 4 5 4 3 5 4 4 6 8 7 6 6 6 6 6 7 5 5 7 5 3 4 5 7 6 7 7 7 10 11 11 13 12 17 11 8 7 9 8 8
6 6 6 6 6 6 5 5 4 4 3 4 4 4 5 8 6 6 6 6 6 6 6 6 5 4 4 5 8 10 10 10 9 7 8 8 10 13 14 15 12 11 9 9 10 11 8
6 6 6 6 6 6 5 5 5 4 4 4 4 2 3 7 7 5 7 6 8 8 7 6 4 4 5 7 9 12 13 10 11 9 7 7 9 11 13 15 17 12 8 6 7 14 7
6 6 6 6 6 6 5 5 5 4 4 4 5 3 3 6 5 6 7 7 5 7 8 7 6 6 5 9 10 11 11 8 13 12 12 11 11 13 13 14 12 8 7 6 13 13 7
6 6 6 6 6 6 6 5 5 4 4 4 6 4 3 5 5 5 5 7 7 6 9 7 8 7 8 10 10 10 11 9 11 10 11 12 13 13 13 15 17 7 7 11 9 7 6
6 6 6 6 6 6 6 5 5 5 3 3 7 3 2 3 4 3 3 4 6 6 6 6 7 7 7 10 10 10 11 10 10 13 8 12 10 12 11 12 8 7 7 6 5 6 6